Flag for U.S.A. Weather past 2 weeks in Leawood, Kansas, U.S.A.

Now
65 °F

Sunny.


Feels Like: 65 °F
Forecast: 63 / 81 °F
Wind: 6 mph from South

Location: Johnson County Executive Airport

Current Time: Sep 30, 2014 at 9:31:49 AM

Latest Report: Sep 30, 2014 at 8:53 AM


Visibility: 10 mi

Pressure: 29.90 "Hg

Humidity: 85%

Dew point: 60 °F

Location of LeawoodLocation

Historic Weather in Leawood — Graph

°F

Leawood temperature yesterday

Maximum temperature yesterday: 83 °F (at 3:53 PM)
Minimum temperature yesterday: 59 °F (at 4:53 AM)
Average temperature yesterday: 71 °F

Past Weeks' High & Low Weather Summary

 TemperatureHumidityPressure
High83 °F (Sep 20, 1:53 PM)100% (Sep 17, 6:02 AM)30.31 "Hg (Sep 17, 6:02 AM)
Low48 °F (Sep 16, 5:53 AM)34% (Sep 21, 12:53 PM)29.86 "Hg (Sep 20, 2:53 PM)
Average67 °F76%30.08 "Hg
* Reported Sep 15 7:53 AM — Sep 30 7:53 AM, Leawood, Weather by CustomWeather, © 2014

Note: Actual official high and low records may vary slightly from our data, if they occured in-between our weather recording intervals... More about our weather records

Advertising

Leawood weather history for previous 24 hours

 ConditionsComfort  
Time TempWeatherWind HumidityBarometerVisibility
7:53 AM
Sep 30
61 °FClear.5 mph90%29.90 "Hg10 mi
6:53 AM61 °FClear.5 mph90%29.90 "Hg10 mi
5:53 AM63 °FClear.5 mph84%29.89 "Hg10 mi
4:53 AM63 °FClear.5 mph84%29.90 "Hg10 mi
3:53 AM63 °FClear.5 mph84%29.91 "Hg10 mi
2:53 AM64 °FClear.3 mph87%29.93 "Hg10 mi
1:53 AM66 °FClear.3 mph78%29.93 "Hg10 mi
12:53 AM67 °FClear.No wind79%29.93 "Hg10 mi
11:53 PM
Sep 29
67 °FClear.3 mph79%29.93 "Hg10 mi
10:53 PM68 °FClear.3 mph76%29.93 "Hg10 mi
9:53 PM70 °FClear.5 mph68%29.93 "Hg10 mi
8:53 PM70 °FClear.3 mph73%29.93 "Hg10 mi
7:53 PM75 °FSunny.5 mph58%29.93 "Hg10 mi
6:53 PM78 °FSunny.3 mph52%29.93 "Hg10 mi
5:53 PM80 °FSunny.7 mph51%29.94 "Hg10 mi
4:53 PM81 °FSunny.8 mph47%29.94 "Hg10 mi
3:53 PM83 °FSunny.3 mph41%29.96 "Hg10 mi
2:53 PM82 °FPassing clouds.3 mph46%29.98 "Hg10 mi
1:53 PM81 °FPassing clouds.No wind49%30.01 "Hg10 mi
12:53 PM81 °FPartly sunny.6 mph51%30.03 "Hg10 mi
11:53 AM80 °FSunny.3 mph54%30.05 "Hg10 mi
10:53 AM76 °FSunny.No wind67%30.06 "Hg10 mi
9:53 AM72 °FPassing clouds.3 mph73%30.07 "Hg10 mi
Weather by CustomWeather, © 2014

See weather overviewHow to use our weather pages